Weather History for Nebraska City, NE

Change the Weather History Date:

Monday, January 6, 2014

  Actual Average (KSDA) Record (KSDA)
Temperature  
Mean Temperature -2 °F -  
Max Temperature 5 °F 31 °F 57 °F (1961)
Min Temperature -9 °F 12 °F -14 °F (1971)
Degree Days  
Heating Degree Days 67    
Moisture  
Dew Point -13 °F    
Average Humidity 59    
Maximum Humidity 67    
Minimum Humidity 52    
Precipitation  
Precipitation 0.00 in - - ()
Sea Level Pressure  
Sea Level Pressure 30.43 in    
Wind  
Wind Speed 11 mph (WNW)    
Max Wind Speed 18 mph    
Max Gust Speed 26 mph    
Visibility 10 miles    
Events      
Averages and records for this station are not official NWS values.
T = Trace of Precipitation, MM = Missing Value Source: NWS Daily Summary

Daily Weather History Graph

Daily Weather History Graph

Search for Another Location

Airport:

Trip Planner

Search our weather history database for the weather conditions in past years. The results will help you decide how hot, cold, wet, or windy it might be!

Date:

Astronomy

Jan. 06, 2014 Rise Set
Actual Time 7:47 AM CST 5:11 PM CST
Civil Twilight 7:16 AM CST 5:42 PM CST
Nautical Twilight 6:42 AM CST 6:16 PM CST
Astronomical Twilight 6:09 AM CST 6:49 PM CST
Moon 11:01 AM CST (1/6) 11:48 PM CST (1/6)
Length of Visible Light 10h 25m
Length of Day
9h 24m
Waxing Crescent, 35% of the Moon is Illuminated
Jan 6
Waxing Crescent
Jan 7
First Quarter
Jan 15
Full
Jan 23
Last Quarter
Jan 30
New

Hourly Weather History & Observations

Time (CST) Temp. Windchill Dew Point Humidity Pressure Visibility Wind Dir Wind Speed Gust Speed Precip Events Conditions
12:15 AM -7.4 °F -27.3 °F -19.5 °F 56% 30.51 in 10.0 mi NNW 12.7 mph - N/A   Clear
12:35 AM -7.8 °F -25.9 °F -19.3 °F 57% 30.49 in 10.0 mi NNW 10.4 mph - N/A   Clear
3:15 AM -8.9 °F -28.2 °F -18.8 °F 62% 30.49 in 10.0 mi WNW 11.5 mph - N/A   Clear
3:35 AM -8.5 °F -27.8 °F -18.4 °F 62% 30.49 in 10.0 mi WNW 11.5 mph - N/A   Clear
3:55 AM -7.6 °F -31.1 °F -18.8 °F 58% 30.48 in 10.0 mi NW 18.4 mph 24.2 mph N/A   Clear
4:15 AM -7.6 °F -29.1 °F -19.3 °F 57% 30.48 in 10.0 mi NW 15.0 mph 26.5 mph N/A   Clear
4:35 AM -8.0 °F -28.8 °F -19.3 °F 58% 30.47 in 10.0 mi NW 13.8 mph 19.6 mph N/A   Clear
4:55 AM -8.5 °F -27.8 °F -19.1 °F 60% 30.47 in 10.0 mi NW 11.5 mph 16.1 mph N/A   Clear
5:15 AM -8.7 °F -28.9 °F -19.3 °F 60% 30.47 in 10.0 mi NW 12.7 mph 17.3 mph N/A   Clear
5:35 AM -8.5 °F -28.6 °F -19.3 °F 59% 30.48 in 10.0 mi NW 12.7 mph - N/A   Clear
5:55 AM -8.5 °F -26.8 °F -19.3 °F 59% 30.47 in 10.0 mi NW 10.4 mph - N/A   Clear
6:15 AM -8.5 °F -25.7 °F -18.9 °F 60% 30.47 in 10.0 mi NW 9.2 mph - N/A   Clear
6:35 AM -8.7 °F -25.9 °F -18.8 °F 61% 30.47 in 10.0 mi NW 9.2 mph - N/A   Clear
6:55 AM -9.0 °F -27.4 °F -18.8 °F 62% 30.47 in 10.0 mi WNW 10.4 mph - N/A   Clear
7:15 AM -8.7 °F -28.0 °F -18.8 °F 61% 30.48 in 10.0 mi NW 11.5 mph 16.1 mph N/A   Clear
7:35 AM -8.5 °F -28.6 °F -18.8 °F 61% 30.48 in 10.0 mi NW 12.7 mph - N/A   Clear
7:55 AM -8.5 °F -25.7 °F -18.6 °F 61% 30.48 in 10.0 mi NW 9.2 mph - N/A   Clear
8:15 AM -8.5 °F -25.7 °F -18.4 °F 62% 30.48 in 10.0 mi NW 9.2 mph - N/A   Clear
8:35 AM -7.6 °F -22.1 °F -17.7 °F 62% 30.49 in 10.0 mi NW 6.9 mph - N/A   Clear
8:55 AM -6.7 °F -22.3 °F -17.1 °F 61% 30.50 in 10.0 mi NW 8.1 mph - N/A   Clear
9:15 AM -5.8 °F -24.4 °F -16.4 °F 60% 30.50 in 10.0 mi NW 11.5 mph 19.6 mph N/A   Clear
9:35 AM -4.9 °F -26.3 °F -16.1 °F 59% 30.50 in 10.0 mi NW 16.1 mph 20.7 mph N/A   Clear
9:55 AM -4.2 °F -24.0 °F -15.2 °F 59% 30.50 in 10.0 mi NW 13.8 mph - N/A   Clear
10:15 AM -3.3 °F -22.1 °F -14.3 °F 59% 30.50 in 10.0 mi NNW 12.7 mph 18.4 mph N/A   Scattered Clouds
10:35 AM -2.6 °F -19.4 °F -13.9 °F 59% 30.49 in 10.0 mi NW 10.4 mph 19.6 mph N/A   Scattered Clouds
10:55 AM -2.0 °F -21.2 °F -14.1 °F 57% 30.49 in 10.0 mi NW 13.8 mph 20.7 mph N/A   Mostly Cloudy
11:15 AM -0.9 °F -21.9 °F -13.0 °F 57% 30.48 in 10.0 mi NNW 17.3 mph 20.7 mph N/A   Mostly Cloudy
11:35 AM -0.8 °F -22.2 °F -12.8 °F 57% 30.49 in 10.0 mi NW 18.4 mph - N/A   Mostly Cloudy
11:55 AM -0.0 °F -20.1 °F -11.9 °F 57% 30.48 in 10.0 mi NW 16.1 mph 26.5 mph N/A   Overcast
12:15 PM 0.1 °F -21.0 °F -12.5 °F 55% 30.47 in 10.0 mi NW 18.4 mph 25.3 mph N/A   Overcast
12:35 PM 0.9 °F -20.1 °F -11.7 °F 56% 30.45 in 10.0 mi NNW 18.4 mph 24.2 mph N/A   Mostly Cloudy
12:55 PM 1.4 °F -17.6 °F -11.0 °F 56% 30.45 in 10.0 mi WNW 15.0 mph 23.0 mph N/A   Scattered Clouds
1:15 PM 2.1 °F -17.3 °F -11.2 °F 54% 30.44 in 10.0 mi NW 16.1 mph - N/A   Mostly Cloudy
1:35 PM 2.5 °F -15.5 °F -9.8 °F 57% 30.44 in 10.0 mi NW 13.8 mph 17.3 mph N/A   Mostly Cloudy
1:55 PM 2.8 °F -15.7 °F -10.5 °F 54% 30.43 in 10.0 mi NW 15.0 mph - N/A   Mostly Cloudy
2:15 PM 3.7 °F -14.6 °F -9.9 °F 53% 30.43 in 10.0 mi WNW 15.0 mph 23.0 mph N/A   Mostly Cloudy
2:35 PM 3.9 °F -15.6 °F -9.9 °F 53% 30.43 in 10.0 mi WNW 17.3 mph 20.7 mph N/A   Scattered Clouds
2:55 PM 4.1 °F -13.4 °F -9.9 °F 52% 30.42 in 10.0 mi NW 13.8 mph 19.6 mph N/A   Scattered Clouds
3:15 PM 4.6 °F -12.0 °F -8.5 °F 55% 30.42 in 10.0 mi WNW 12.7 mph - N/A   Scattered Clouds
3:35 PM 5.0 °F -10.8 °F -8.1 °F 55% 30.42 in 10.0 mi NW 11.5 mph - N/A   Clear
3:55 PM 5.7 °F -9.1 °F -8.5 °F 52% 30.42 in 10.0 mi WNW 10.4 mph - N/A   Scattered Clouds
4:15 PM 5.7 °F -8.2 °F -8.5 °F 52% 30.42 in 10.0 mi NW 9.2 mph - N/A   Clear
4:35 PM 5.5 °F -8.4 °F -8.5 °F 53% 30.41 in 10.0 mi NW 9.2 mph - N/A   Clear
4:55 PM 4.8 °F -5.8 °F -8.5 °F 54% 30.40 in 10.0 mi NW 5.8 mph - N/A   Clear
5:15 PM 3.7 °F -7.1 °F -8.9 °F 56% 30.40 in 10.0 mi WNW 5.8 mph - N/A   Clear
5:35 PM 2.8 °F -4.6 °F -9.4 °F 57% 30.39 in 10.0 mi West 3.5 mph - N/A   Clear
5:55 PM 2.8 °F -4.6 °F -9.6 °F 56% 30.39 in 10.0 mi West 3.5 mph - N/A   Clear
6:15 PM 3.0 °F - -9.9 °F 55% 30.39 in 10.0 mi Calm Calm - N/A   Clear
6:35 PM 2.5 °F - -10.3 °F 55% 30.38 in 10.0 mi Calm Calm - N/A   Clear
6:55 PM 2.5 °F - -10.3 °F 55% 30.39 in 10.0 mi Calm Calm - N/A   Clear
7:15 PM 1.9 °F - -10.7 °F 56% 30.38 in 10.0 mi Calm Calm - N/A   Clear
7:35 PM 0.5 °F - -10.5 °F 60% 30.38 in 10.0 mi Calm Calm - N/A   Clear
7:55 PM 0.7 °F -7.1 °F -10.3 °F 60% 30.37 in 10.0 mi SW 3.5 mph - N/A   Clear
8:15 PM -0.9 °F -8.9 °F -11.0 °F 62% 30.37 in 10.0 mi SW 3.5 mph - N/A   Clear
8:35 PM -1.3 °F -9.3 °F -11.0 °F 63% 30.37 in 10.0 mi SW 3.5 mph - N/A   Clear
8:55 PM -1.5 °F -11.6 °F -11.0 °F 64% 30.36 in 10.0 mi SSW 4.6 mph - N/A   Clear
9:15 PM -2.4 °F -12.7 °F -11.6 °F 65% 30.35 in 10.0 mi SW 4.6 mph - N/A   Clear
9:35 PM -1.3 °F -13.1 °F -10.5 °F 65% 30.34 in 10.0 mi SW 5.8 mph - N/A   Clear
9:55 PM -1.3 °F -14.5 °F -10.5 °F 65% 30.34 in 10.0 mi SW 6.9 mph - N/A   Clear
10:15 PM -1.3 °F -15.7 °F -10.5 °F 65% 30.33 in 10.0 mi SW 8.1 mph - N/A   Clear
10:35 PM -1.3 °F -14.5 °F -10.3 °F 66% 30.32 in 10.0 mi SW 6.9 mph - N/A   Clear
10:55 PM -1.3 °F -16.8 °F -10.1 °F 66% 30.31 in 10.0 mi SW 9.2 mph - N/A   Clear
11:15 PM -0.9 °F -16.4 °F -9.8 °F 66% 30.31 in 10.0 mi SW 9.2 mph - N/A   Clear
11:35 PM -1.7 °F -16.2 °F -10.3 °F 67% 30.31 in 10.0 mi WSW 8.1 mph - N/A   Clear
11:55 PM -0.4 °F -14.7 °F -9.6 °F 65% 30.29 in 10.0 mi SW 8.1 mph - N/A   Clear